sat.trackr.live / text

‹ back to catalog

STARLINK-34692

NORAD 65759 · 2025-216AB

PAYLOAD ACTIVE UNKNOWN

§ Identity

Operator
Country
US
Launch date
2025-09-25
Launch site
AFETR
Launch vehicle
Mass (kg)
RCS (m²)

Purposes: comms

External: N2YO · Heavens-Above · Gunter

§ Orbital elements

Epoch: 2026-05-24T19:16:41.032416Z

Period
94.11 min
Inclination
53.1620°
Eccentricity
0.0000827
Mean motion
15.30201326 rev/d
Perigee alt
474.6 km
Apogee alt
475.8 km
Semi-major
6,853.3 km
B*
6.1071e-4
RAAN
339.5764°
Arg perigee
86.8392°
Mean anomaly
273.2703°
Rev number
3,815

§ Raw data

STARLINK-346921 65759U 25216AB  26144.80325269  .00017772  00000+0  61071-3 0  99912 65759  53.1620 339.5764 0000827  86.8392 273.2703 15.30201326 38155

JSON: /api/v1/satellites/65759 · /tle

For live sub-satellite position, see the globe view (requires WebGL).

§ Visibility from observer

Set your observer location to see the next 7 days of passes ≥ 10°. The values pass through the URL so the page stays shareable.

No JS? Fill the form by hand. The geolocation button needs JavaScript.